{"data":{"norad_id":62498,"intl_designator":"2025-003M","name":"STARLINK-32739","alt_names":[],"object_type":"PAYLOAD","status":"ACTIVE","operator":null,"country":"US","launch_date":"2025-01-06","launch_site_code":"AFETR","launch_vehicle":null,"mission":null,"orbit_class":"UNKNOWN","rcs_meters":null,"size_class":null,"mass_kg":null,"dimensions":null,"purposes":["comms"],"wikipedia_slug":null,"has_3d_model":false,"image_url":null,"decayed_at":null,"tle_current":{"epoch":"2026-09-21T06:32:36.356064Z","epoch_age_seconds":107815,"freshness":"FRESH","line1":"1 62498U 25003M   26264.27264301  .00009081  00000+0  33906-3 0  9995","line2":"2 62498  43.0022 264.4037 0001632 277.4085  82.6581 15.27586635 96534","mean_motion":15.27586635,"eccentricity":0.0001632,"inclination_deg":43.0022,"raan_deg":264.4037,"arg_perigee_deg":277.4085,"mean_anomaly_deg":82.6581,"bstar":0.00033906,"rev_number":9653,"period_min":94.266339270506,"perigee_km":481.90948620614,"apogee_km":484.14897086313,"semimajor_km":6861.1662285346,"source":"CELESTRAK","updated_at":"2026-09-22T09:00:49.618441Z"}}}